Location: Bailleul
(50.3375°N, 2.8513°E)
Time: 16:15:32
(UTC+00:00)

Cosmos 2016 Rocket - Pass Details

Date: 31 October 2021
Orbit: 946 x 1001 km, 83.0° (Epoch: 30 November)

Event Time Altitude Azimuth Distance (km) Brightness Sun altitude
Rises 05:00:55 0° 354° (N) 3,630 6.9 -15.8°
Reaches altitude 10° 05:03:36 10° 2° (N) 2,682 6.3 -15.4°
Maximum altitude 05:09:19 40° 71° (ENE) 1,381 5.4 -14.5°
Drops below altitude 10° 05:15:02 10° 140° (SE) 2,685 7.0 -13.6°
Sets 05:17:42 0° 147° (SSE) 3,634 7.6 -13.2°
